{"data":{"norad_id":51632,"intl_designator":"2022-012L","name":"ONEWEB-0435","alt_names":[],"object_type":"PAYLOAD","status":"ACTIVE","operator":null,"country":"UK","launch_date":"2022-02-10","launch_site_code":"FRGUI","launch_vehicle":null,"mission":null,"orbit_class":"UNKNOWN","rcs_meters":null,"size_class":null,"mass_kg":null,"dimensions":null,"purposes":["comms"],"wikipedia_slug":null,"has_3d_model":false,"image_url":null,"decayed_at":null,"tle_current":{"epoch":"2026-05-25T03:15:17.822880Z","epoch_age_seconds":66618,"freshness":"FRESH","line1":"1 51632U 22012L   26145.13562295 -.00000267  00000+0 -80179-3 0  9999","line2":"2 51632  87.8854  40.8677 0001726  72.2251 287.9064 13.10376418206295","mean_motion":13.10376418,"eccentricity":0.0001726,"inclination_deg":87.8854,"raan_deg":40.8677,"arg_perigee_deg":72.2251,"mean_anomaly_deg":287.9064,"bstar":-0.00080179,"rev_number":20629,"period_min":109.89208751161,"perigee_km":1220.391495084,"apogee_km":1223.0149599305,"semimajor_km":7599.8402275072,"source":"CELESTRAK","updated_at":"2026-05-25T13:38:22.578004Z"}}}